Location: Namasale
(1.5000°N, 32.6167°E)
Time: 12:07:32
(UTC+00:00)

A-11 Canister half - All Passes

Search period start: 18 April 2021 00:00
Search period end: 28 April 2021 00:00
Orbit: 1515 x 1685 km, 47.2° (Epoch: 17 April)

Date Brightness Start Highest point End Pass type
(mag) Time Alt. Az. Time Alt. Az. Time Alt. Az.
18 Apr - 01:46:24 10° NNE 01:51:04 14° NE 01:55:45 10° ENE visible
18 Apr - 03:46:31 10° NNW 03:56:38 73° NE 04:06:43 10° SE daylight
18 Apr - 05:53:52 10° W 06:01:36 25° SW 06:09:19 10° S daylight
18 Apr - 14:36:14 10° S 14:43:30 25° SE 14:50:43 10° E daylight
18 Apr - 16:39:06 10° SW 16:48:12 64° NW 16:57:24 10° NNE visible
18 Apr - 18:52:35 10° NW 18:53:44 10° NW 18:54:53 10° NW visible
19 Apr - 01:24:20 10° NNE 01:28:01 12° NE 01:31:43 10° ENE visible
19 Apr - 03:23:38 10° NNW 03:33:41 67° NE 03:43:43 10° SE visible
19 Apr - 05:30:31 10° WNW 05:38:38 27° SW 05:46:42 10° S daylight
19 Apr - 14:13:40 10° S 14:20:34 23° SE 14:27:25 10° E daylight
19 Apr - 16:16:08 10° SW 16:25:19 70° NW 16:34:33 10° NNE visible
19 Apr - 18:27:46 10° WNW 18:30:43 12° NW 18:33:41 10° NNW visible
20 Apr - 01:02:42 10° NNE 01:04:57 11° NE 01:07:14 10° NE visible
20 Apr - 03:00:46 10° NNW 03:10:44 62° NE 03:20:42 10° SE visible
20 Apr - 05:07:13 10° WNW 05:15:39 30° SW 05:24:04 10° S daylight
20 Apr - 13:51:07 10° S 13:57:37 21° SE 14:04:04 10° E daylight
20 Apr - 15:53:11 10° SW 16:02:25 76° NW 16:11:42 10° NE visible
20 Apr - 18:03:46 10° WNW 18:07:42 13° NW 18:11:41 10° NNW visible
21 Apr - 02:37:55 10° NNW 02:47:46 57° NE 02:57:40 10° SE visible
21 Apr - 04:43:59 10° WNW 04:52:41 33° SW 05:01:23 10° S daylight
21 Apr - 13:28:37 10° S 13:34:41 19° SE 13:40:40 10° E daylight
21 Apr - 15:30:15 10° SW 15:39:31 82° NW 15:48:49 10° NE daylight
21 Apr - 17:40:01 10° WNW 17:44:42 15° NW 17:49:27 10° NNW visible
22 Apr - 02:15:06 10° NNW 02:24:50 52° NE 02:34:36 10° SE visible
22 Apr - 04:20:46 10° WNW 04:29:43 36° SW 04:38:41 10° SSE daylight
22 Apr - 13:06:11 10° S 13:11:43 17° SE 13:17:10 10° E daylight
22 Apr - 15:07:20 10° SW 15:16:38 88° NW 15:25:56 10° NE daylight
22 Apr - 17:16:23 10° W 17:21:43 16° NW 17:27:06 10° N visible
23 Apr - 01:52:17 10° NNW 02:01:52 48° NE 02:11:31 10° ESE visible
23 Apr - 03:57:36 10° WNW 04:06:45 39° SW 04:15:57 10° SSE daylight
23 Apr - 12:43:51 10° SSE 12:48:45 15° SE 12:53:35 10° E daylight
23 Apr - 14:44:26 10° SW 14:53:45 85° SE 15:03:01 10° NE daylight
23 Apr - 16:52:53 10° W 16:58:45 18° NW 17:04:39 10° N visible
24 Apr - 01:29:30 10° NNW 01:38:55 44° NE 01:48:23 10° ESE visible
24 Apr - 03:34:26 10° WNW 03:43:48 42° SW 03:53:11 10° SSE daylight
24 Apr - 12:21:39 10° SSE 12:25:46 13° SE 12:29:51 10° ESE daylight
24 Apr - 14:21:33 10° SW 14:30:52 79° SE 14:40:05 10° NE daylight
24 Apr - 16:29:27 10° W 16:35:46 20° NW 16:42:09 10° N visible
25 Apr - 01:06:44 10° NNW 01:15:57 41° NE 01:25:15 10° ESE visible
25 Apr - 03:11:20 10° WNW 03:20:50 46° SW 03:30:25 10° SSE visible
25 Apr - 11:59:41 10° SSE 12:02:46 12° SE 12:05:51 10° ESE daylight
25 Apr - 13:58:42 10° SSW 14:07:58 72° SE 14:17:09 10° NE daylight
25 Apr - 16:06:05 10° W 16:12:48 22° NW 16:19:36 10° N visible
26 Apr - 00:43:59 10° NNW 00:52:59 37° NE 01:02:04 10° ESE visible
26 Apr - 02:48:15 10° WNW 02:57:53 50° SW 03:07:38 10° SSE visible
26 Apr - 11:38:24 10° SE 11:39:47 10° SE 11:41:09 10° SE daylight
26 Apr - 13:35:51 10° SSW 13:45:05 66° SE 13:54:12 10° NE daylight
26 Apr - 15:42:47 10° W 15:49:52 25° NW 15:57:01 10° N daylight
27 Apr - 00:21:16 10° NNW 00:30:01 34° NE 00:38:52 10° ESE visible
27 Apr - 02:25:10 10° NW 02:34:56 55° SW 02:44:48 10° SSE visible
27 Apr - 13:13:00 10° SSW 13:22:11 61° SE 13:31:13 10° NE daylight
27 Apr - 15:19:30 10° WSW 15:26:56 27° NW 15:34:23 10° N daylight
